This is the latest recevied weather packets stored in our database for station/object K4KMJ. If no packets are shown the sender has not sent any weather packets the latest 10 day(s).
| Time | Temp. | Humidity | Pressure | Rain* | Wind** | Luminosity | Snow |
|---|---|---|---|---|---|---|---|
| 1787868621 | 22.78° C | 99% | 1018.6 hPa | 2.29 mm | - | 9 W/m² | - |
| 1787868319 | 22.22° C | 99% | 1018.9 hPa | 3.05 mm | - | 9 W/m² | - |
| 1787868014 | 22.22° C | 99% | 1018.9 hPa | 3.56 mm | - | 9 W/m² | - |
| 1787867710 | 22.22° C | 99% | 1018.8 hPa | 3.56 mm | - | 10 W/m² | - |
| 1787867404 | 22.22° C | 99% | 1018.8 hPa | 4.32 mm | - | 11 W/m² | - |
| 1787867100 | 22.22° C | 99% | 1018.8 hPa | 3.05 mm | - | 12 W/m² | - |
| 1787866795 | 22.22° C | 99% | 1018.6 hPa | 3.05 mm | - | 14 W/m² | - |
| 1787866495 | 22.22° C | 99% | 1018.7 hPa | 2.29 mm | - | 15 W/m² | - |
| 1787866193 | 22.22° C | 99% | 1018.3 hPa | 2.29 mm | - | 17 W/m² | - |
| 1787865888 | 21.67° C | 99% | 1018.4 hPa | 1.78 mm | - | 18 W/m² | - |
| 1787865584 | 21.67° C | 99% | 1018.4 hPa | 0.51 mm | - | 19 W/m² | - |
| 1787865278 | 21.67° C | 99% | 1018.2 hPa | 1.27 mm | - | 21 W/m² | - |
| 1787864975 | 21.67° C | 99% | 1018.4 hPa | 1.27 mm | - | 24 W/m² | - |
| 1787864670 | 21.67° C | 99% | 1018.6 hPa | 0.51 mm | - | 30 W/m² | - |
| 1787864363 | 21.67° C | 99% | 1018.4 hPa | 3.05 mm | - | 41 W/m² | - |
| 1787864058 | 22.22° C | 99% | 1018.1 hPa | 9.65 mm | - | 58 W/m² | - |
| 1787863756 | 22.22° C | 99% | 1018.4 hPa | 17.53 mm | - | 47 W/m² | - |
| 1787863455 | 22.22° C | 98% | 1018.8 hPa | 29.46 mm | - | 38 W/m² | - |
| 1787863152 | 22.78° C | 96% | 1018.6 hPa | 19.81 mm | - | 25 W/m² | - |
| 1787862847 | 23.89° C | 92% | 1018.7 hPa | 0 mm | - | 34 W/m² | - |
| 1787862547 | 25.56° C | 87% | 1018.7 hPa | 0 mm | - | 30 W/m² | - |
| 1787862242 | 30° C | 79% | 1018 hPa | 0 mm | - | 20 W/m² | - |
| 1787861937 | 31.11° C | 75% | 1017.4 hPa | 0 mm | - | 115 W/m² | - |
| 1787861637 | 31.67° C | 73% | 1017.1 hPa | 0 mm | - | 269 W/m² | - |
| 1787861335 | 32.22° C | 72% | 1017 hPa | 0 mm | - | 708 W/m² | - |
* Rain latest hour (hover to see other rain measurements)
** Current wind speed in m/s (hover to see current wind gust speed)